Location: Unspecified
(0.0000°N, 0.0000°E)
Time: 22:37:52
(UTC+00:00)

Vanguard 2 - Pass Details

Date: 08 October 2020
Orbit: 554 x 2937 km, 32.9° (Epoch: 27 October)

Event Time Altitude Azimuth Distance (km) Brightness Sun altitude
Rises 18:19:57 0° 213° (SSW) 5,297 12.4 -8.1°
Reaches altitude 10° 18:24:19 10° 198° (SSW) 4,677 11.9 -9.2°
Maximum altitude 18:34:41 24° 150° (SSE) 4,325 11.1 -11.8°
Enters shadow 18:46:09 12° 107° (ESE) 5,591 11.3 -14.6°
Drops below altitude 10° 18:47:11 10° 104° (ESE) 5,750 - -14.9°
Sets 18:53:20 0° 92° (E) 6,775 - -16.4°
